Location: Appletree Creek
(38.7363°N, 122.6833°W)
Time: 09:07:29
(UTC+00:00)

Cosmos 841 Rocket - Pass Details

Date: 18 September 2020
Orbit: 746 x 773 km, 74.0° (Epoch: 22 October)

Event Time Altitude Azimuth Distance (km) Brightness Sun altitude
Rises 12:46:05 0° 184° (S) 3,195 6.5 -14.2°
Reaches altitude 10° 12:48:28 10° 179° (S) 2,279 5.8 -13.7°
Maximum altitude 12:53:29 53° 104° (ESE) 933 4.3 -12.8°
Drops below altitude 10° 12:58:34 10° 28° (NNE) 2,311 6.6 -11.8°
Sets 13:01:00 0° 24° (NNE) 3,244 7.3 -11.4°
